Location: Mapua
(41.2500°S, 173.1000°E)
Time: 01:26:07
(UTC+13:00)

Tiangong 1 - Visible Passes

Search period start: 22 October 2017 00:00
Search period end: 01 November 2017 00:00
Orbit: 293 x 320 km, 42.8° (Epoch: 21 October)

Date Brightness Start Highest point End Pass type
(mag) Time Alt. Az. Time Alt. Az. Time Alt. Az.
22 Oct 3.7 04:21:37 12° ENE 04:21:37 12° ENE 04:21:54 10° ENE visible
22 Oct 2.5 05:52:16 10° WNW 05:53:58 16° NNW 05:55:46 10° NNE visible
27 Oct 2.5 21:22:48 10° NNW 21:24:01 19° N 21:24:01 19° N visible
28 Oct 1.2 21:32:10 10° NW 21:34:21 42° N 21:34:21 42° N visible
29 Oct 0.6 21:41:46 10° WNW 21:44:18 77° NW 21:44:18 77° NW visible
30 Oct 1.0 21:51:26 10° W 21:53:55 64° SW 21:53:55 64° SW visible
31 Oct 1.6 22:01:04 10° W 22:03:16 48° SW 22:03:16 48° SW visible
